Location: Unspecified
(38.9820°N, 94.4650°W)
Time: 09:02:38
(UTC-06:00)

CZ-3 Stage 3 - Visible Passes

Search period start: 19 January 2017 00:00
Search period end: 29 January 2017 00:00
Orbit: 437 x 34765 km, 30.5° (Epoch: 18 January)

Date Brightness Start Highest point End Pass type
(mag) Time Alt. Az. Time Alt. Az. Time Alt. Az.
19 Jan 7.9 02:13:55 54° SSW 04:25:08 70° SW 10:50:44 10° SSE visible
19 Jan 7.6 21:53:52 10° SSE 04:56:33 67° ESE 07:10:16 10° ESE visible
20 Jan 10.1 22:05:11 10° ENE 01:17:28 22° ENE 02:54:27 10° ENE visible
21 Jan 8.7 05:38:50 17° W 07:16:46 28° W 12:52:46 10° WNW visible
22 Jan 7.9 01:17:32 10° SW 04:13:51 71° SW 10:41:54 10° SSE visible
22 Jan 7.6 21:44:32 10° SSE 04:46:45 67° ESE 07:01:32 10° ESE visible
23 Jan 10.1 21:54:04 10° ENE 01:07:53 22° ENE 02:45:19 10° ENE visible
24 Jan 8.7 05:37:10 19° W 07:08:00 28° W 12:38:14 10° WNW visible
25 Jan 7.9 01:08:38 10° SW 04:02:38 71° SW 10:33:02 10° SSE visible
25 Jan 7.5 21:35:14 10° SSE 04:36:57 67° ESE 06:52:46 10° ESE visible
26 Jan 10.1 21:43:08 10° ENE 00:58:19 22° ENE 02:36:08 10° ENE visible
27 Jan 8.7 05:34:50 21° W 06:59:11 28° W 12:24:29 10° WNW visible
28 Jan 7.9 00:59:44 10° SW 03:51:27 71° SW 10:24:08 10° SSE visible
